TIME,DELAY(SENSOR),PRES,OXYGEN,RAWTEMP,T(OPTODE),TCPHASE,FLUOR,BETA(BETA700),BETA(BETA412),BETA(BETA440),CDOM,C(CSC),ED(ED412.20),ED(ED444.00),ED(ED489.60),ED(ED554.30),LU(LU412.10),LU(LU443.90),LU(LU489.70),LU(LU554.70),COMP,TILTX,TILTY,CHECK
1340768265,5812,904.0399780273438000,38.2850990295410160,564.3770141601562000,4.3501639366149900,55.8114814758300800,55,101,102,78,83,15560,0,0,0,0,2147125385,2147773961,2147571163,2147571392,3465,3,13,33957
1340771861,5809,988.0900268554688000,41.1626510620117200,570.4213256835938000,4.1624679565429690,55.4508018493652340,54,99,100,77,82,15556,0,0,0,0,2147124132,2147773869,2147567716,2147571346,3526,2,13,59098
1340775461,5810,1000.6500244140625000,40.9138488769531250,571.8294067382812000,4.1186962127685550,55.5029411315918000,55,100,102,78,83,15556,0,0,0,0,2147125403,2147777526,2147572525,2147571209,111,3,13,62854
1340779061,5808,1008.6400146484375000,40.1824493408203100,573.0955200195312000,4.0793251991271970,55.6204414367675800,55,99,100,78,84,15559,0,0,0,0,2147122203,2147773120,2147576201,2147568429,80,3,13,32827
1340782661,5807,1010.4799804687500000,40.2000198364257800,573.9359130859375000,4.0531849861145020,55.6300315856933600,55,97,100,78,82,15557,0,0,0,0,2147123456,2147775762,2147571885,2147572909,299,3,13,24046
1340786261,5809,1011.7999877929688000,39.8720588684082000,574.3248291015625000,4.0410881042480470,55.6787490844726560,55,99,104,77,84,15559,0,0,0,0,2147123620,2147779922,2147577837,2147571446,192,3,13,47887
1340789861,5810,1003.9799804687500000,42.1575508117675800,574.6640014648438000,4.0305328369140625,55.3471412658691400,54,99,101,79,85,15556,0,0,0,0,2147124571,2147778432,2147578404,2147568265,3120,3,13,59059
1340793461,5808,1012.6799926757812000,42.1581001281738300,574.2421875000000000,4.0436568260192870,55.3401603698730500,55,243,101,79,84,15552,0,0,0,0,2147127579,2147776512,2147569362,2147572132,362,3,13,9442
1340797061,5809,1013.2899780273438000,41.5136108398437500,574.3751220703125000,4.0395197868347170,55.4383583068847660,55,99,101,79,82,15556,0,0,0,0,2147123794,2147774326,2147573750,2147572891,108,3,13,15325
1340800661,5808,1008.6400146484375000,41.5038604736328100,575.1478881835938000,4.0154719352722170,55.4520912170410160,55,97,100,78,82,15556,0,0,0,0,2147123282,2147775268,2147575963,2147569133,3542,3,13,59830
1340804261,5809,1013.3099975585938000,41.4970703125000000,575.7348022460938000,3.9972081184387207,55.4538688659668000,56,98,101,78,84,15551,0,0,0,0,2147124388,2147772333,2147573092,2147572662,145,3,13,32292
1340807861,5811,1015.4600219726562000,41.8003997802734400,575.3682861328125000,4.0086140632629395,55.4095191955566400,56,99,100,79,83,15552,0,0,0,0,2147120685,2147778432,2147575195,2147568960,67,3,13,21743
1340811461,5807,1011.0399780273438000,41.4178581237793000,575.3411254882812000,4.0094599723815920,55.4617004394531250,55,98,102,78,84,15552,0,0,0,0,2147122669,2147781513,2147577252,2147569234,341,3,13,3623
1340815061,5807,1013.2100219726562000,41.4773788452148440,576.1145019531250000,3.9853899478912354,55.4600601196289060,56,96,102,78,84,15555,0,0,0,0,2147119872,2147782866,2147578368,2147570569,3595,3,13,54119
1340818661,5807,1018.4299926757812000,41.5100708007812500,575.5430908203125000,4.0031762123107910,55.4496383666992200,55,98,100,78,84,15554,0,0,0,0,2147123401,2147777673,2147573257,2147572653,302,3,13,54343
1340822261,5809,1022.5499877929688000,41.3028488159179700,574.8624267578125000,4.0243592262268070,55.4760093688964840,56,98,102,78,83,15553,0,0,0,0,2147125211,2147771108,2147575424,2147567021,184,3,13,42119
1340825861,5808,1018.9400024414062000,40.8532295227050800,574.2111816406250000,4.0446209907531740,55.5339088439941400,56,98,101,78,84,15548,0,0,0,0,2147124772,2147776493,2147579145,2147571638,416,3,13,14108
1340829461,5808,1016.0399780273438000,40.5686302185058600,575.4025878906250000,4.0075449943542480,55.5906715393066400,55,99,100,78,83,15548,0,0,0,0,2147120448,2147776265,2147576704,2147570496,427,3,13,56008
1340833061,5807,1017.8400268554688000,40.5608291625976560,574.8579711914062000,4.0244941711425780,55.5812492370605500,55,99,100,78,83,15552,0,0,0,0,2147122432,2147780306,2147574793,2147569792,313,3,13,61459
1340836661,5812,1021.5999755859375000,40.7859611511230500,575.2825927734375000,4.0112838745117190,55.5538787841796900,55,99,102,77,83,15535,0,0,0,0,2147124096,2147778130,2147572534,2147570285,3539,3,13,36820
1340840261,5811,1020.3099975585938000,40.6120300292968750,575.4448242187500000,4.0062351226806640,55.5849418640136700,55,102,100,78,83,15540,0,0,0,0,2147123766,2147776658,2147572233,2147572452,76,3,13,59390
1340843861,5811,1012.0599975585938000,41.1095314025878900,576.7052001953125000,3.9670009613037110,55.5234985351562500,55,98,101,78,83,15534,0,0,0,0,2147127789,2147781659,2147574445,2147573769,3539,3,13,10469
1340847461,5809,1014.9400024414062000,41.4472694396972660,576.8391113281250000,3.9628350734710693,55.4730911254882800,54,100,101,79,83,15538,0,0,0,0,2147122843,2147778450,2147574299,2147569325,3172,3,13,57357
1340851061,5810,1021.5599975585938000,41.3320884704589840,575.3441162109375000,4.0093708038330080,55.4762191772460940,55,99,101,77,85,15535,0,0,0,0,2147125961,2147775460,2147572342,2147569819,24,3,13,49122
1340854661,5809,1024.1600341796875000,41.3539810180664060,574.7490844726562000,4.0278840065002440,55.4668312072753900,55,98,101,78,83,15535,0,0,0,0,2147123657,2147783908,2147573686,2147568484,112,3,13,60780
1340858261,5810,1027.5000000000000000,41.4139099121093750,574.3098754882812000,4.0415477752685550,55.4491386413574200,55,99,101,79,83,15536,0,0,0,0,2147124278,2147779684,2147568960,2147571437,3544,3,13,8350
1340861861,5808,1030.2900390625000000,40.9314498901367200,573.7556762695312000,4.0587878227233890,55.5157585144043000,56,98,101,79,83,15534,0,0,0,0,2147125613,2147777563,2147576877,2147569334,3527,3,13,55683
1340865461,5810,1024.9599609375000000,41.0815811157226560,574.6826171875000000,4.0299549102783200,55.5037498474121100,55,97,102,78,83,15535,0,0,0,0,2147124818,2147770084,2147571849,2147569554,53,3,13,47146
1340869061,5810,1025.9899902343750000,40.6455307006835940,574.6956176757812000,4.0295491218566895,55.5730018615722660,54,99,101,78,84,15535,0,0,0,0,2147126372,2147776914,2147573723,2147569362,236,3,13,36197
1340872661,5808,1020.2500000000000000,40.9565200805664060,575.1049804687500000,4.0168080329895020,55.5271110534668000,54,98,101,78,83,15531,0,0,0,0,2147124662,2147778185,2147568676,2147569088,3237,3,13,5077
1340876261,5808,1019.2700195312500000,40.4288101196289060,575.3339233398438000,4.0096859931945800,55.6068611145019500,55,99,101,78,84,15531,0,0,0,0,2147125979,2147774226,2147574262,2147573869,290,3,13,18223
1340879861,5808,1021.8699951171875000,40.4043312072753900,576.6113281250000000,3.9699270725250244,55.6284904479980500,55,98,101,79,84,15533,0,0,0,0,2147129252,2147777865,2147570843,2147567588,217,3,13,7337
1340883461,5812,1020.8200073242188000,40.3956108093261700,577.1790771484375000,3.9522459506988525,55.6365394592285160,54,99,101,79,83,15535,0,0,0,0,2147124324,2147775131,2147574738,2147572909,104,3,13,13869
1340887061,5810,1028.2900390625000000,41.1602592468261700,576.6483154296875000,3.9687728881835938,55.5125198364257800,56,99,101,78,82,15533,0,0,0,0,2147123766,2147777124,2147572900,2147570980,122,3,13,29220
1340890661,5808,1022.2199707031250000,40.3746604919433600,576.5975952148438000,3.9703519344329834,55.6338882446289060,54,97,102,78,84,15535,0,0,0,0,2147125156,2147775021,2147570916,2147571913,257,3,13,26558
1340894261,5809,1024.9599609375000000,41.2106590270996100,576.6920776367188000,3.9674110412597656,55.5062789916992200,55,99,101,78,84,15534,0,0,0,0,2147124553,2147775104,2147574180,2147565906,55,3,13,53008
1340897861,5809,1026.8299560546875000,41.0233612060546900,576.6287231445312000,3.9693849086761475,55.5322303771972660,54,98,101,78,84,15533,0,0,0,0,2147124553,2147777453,2147575844,2147570925,165,3,13,25293
1340901461,5812,1022.2299804687500000,40.7285118103027340,576.3704223632812000,3.9774229526519775,55.5741691589355500,55,98,100,78,83,15534,0,0,0,0,2147123520,2147774948,2147574043,2147569024,3333,3,13,5249
1340905061,5809,1025.8800048828125000,41.0839805603027340,575.6605834960938000,3.9995169639587402,55.5136489868164060,56,97,101,81,84,15526,0,0,0,0,2147121307,2147777563,2147576054,2147571538,198,3,13,3553
1340908661,5812,1030.4000244140625000,41.6436500549316400,575.3253784179688000,4.0099511146545410,55.4260787963867200,55,97,102,77,84,15524,0,0,0,0,2147122971,2147775917,2147572699,2147567762,30,3,13,32790
1340911556,5808,1029.2299804687500000,41.1840095520019500,575.6486206054688000,3.9998910427093506,55.4965400695800800,56,96,101,78,84,15526,0,0,0,0,2147121755,2147775186,2147577746,2147568548,31,3,13,34803
